Flag for France Weather past 2 weeks in Amiens, France

Now
73 °F

Partly sunny.


Feels Like: 77 °F
Forecast: 52 / 78 °F
Wind: 15 mph from Northwest

Location: Beauvais Airport

Current Time: Jul 5, 2015 at 5:58:33 PM

Latest Report: Jul 5, 2015 at 5:30 PM


Visibility: N/A

Pressure: 30.07 "Hg

Humidity: 57%

Dew point: 57 °F

Location of AmiensLocation

Historic Weather in Amiens — Graph

°F

Amiens temperature yesterday

Maximum temperature yesterday: 86 °F (at 3:00 PM)
Minimum temperature yesterday: 64 °F (at 6:30 AM)
Average temperature yesterday: 76 °F

Past Weeks' High & Low Weather Summary

 TemperatureHumidityPressure
High99 °F (Jul 1, 3:30 PM)100% (Jun 23, 4:00 AM)30.27 "Hg (Jun 23, 4:00 AM)
Low41 °F (Jun 24, 5:30 AM)21% (Jun 30, 5:00 PM)29.80 "Hg (Jun 22, 5:30 PM)
Average68 °F67%30.09 "Hg
* Reported Jun 20 4:00 PM — Jul 5 4:30 PM, Amiens, Weather by CustomWeather, © 2015

Note: Actual official high and low records may vary slightly from our data, if they occured in-between our weather recording intervals... More about our weather records

Advertising

Amiens weather history for previous 24 hours

 ConditionsComfort  
Time TempWeatherWind HumidityBarometerVisibility
4:30 PM
Sun, Jul 5
73 °FSunny.3 mph57%30.07 "Hg10 mi
4:00 PM72 °FPassing clouds.3 mph57%30.07 "HgN/A
3:30 PM72 °FPassing clouds.5 mph61%30.04 "HgN/A
3:00 PM72 °FMild.10 mph61%30.04 "HgN/A
2:30 PM72 °FPassing clouds.12 mph57%30.04 "HgN/A
2:00 PM66 °FPassing clouds.16 mph64%30.07 "HgN/A
1:30 PM64 °FPartly sunny.20 mph68%30.07 "HgN/A
1:00 PM70 °FBroken clouds.22 mph64%30.07 "HgN/A
12:30 PM70 °FScattered clouds.18 mph64%30.04 "HgN/A
12:00 PM68 °FMild.10 mph69%30.04 "HgN/A
11:30 AM66 °FPartly sunny.10 mph73%30.01 "HgN/A
11:00 AM66 °FMild.7 mph64%30.04 "HgN/A
10:30 AM68 °FMild.6 mph56%30.01 "HgN/A
10:00 AM68 °FOvercast.7 mph60%29.98 "HgN/A
9:30 AM66 °FPassing clouds.6 mph64%30.04 "HgN/A
9:00 AM66 °FSunny.6 mph68%30.07 "Hg10 mi
8:30 AM64 °FPassing clouds.5 mph73%30.07 "HgN/A
8:00 AM64 °FPartly sunny.6 mph73%30.07 "HgN/A
7:30 AM64 °FScattered clouds.3 mph73%30.07 "HgN/A
7:00 AM64 °FMostly cloudy.3 mph73%30.09 "HgN/A
6:30 AM63 °FOvercast.3 mph77%30.09 "HgN/A
5:30 AM63 °FMostly cloudy.No wind77%30.09 "HgN/A
5:00 AM63 °FOvercast.2 mph77%30.09 "HgN/A
4:30 AM63 °FMostly cloudy.3 mph83%30.12 "HgN/A
4:00 AM61 °FPassing clouds.3 mph83%30.12 "HgN/A
3:30 AM61 °FClear.3 mph83%30.12 "Hg10 mi
3:00 AM63 °FClear.2 mph77%30.12 "Hg10 mi
2:30 AM64 °FClear.3 mph73%30.15 "Hg10 mi
2:00 AM64 °FClear.3 mph73%30.15 "Hg10 mi
1:30 AM64 °FPassing clouds.5 mph73%30.15 "HgN/A
1:00 AM64 °FClear.5 mph73%30.15 "Hg10 mi
12:30 AM64 °FPassing clouds.5 mph78%30.15 "HgN/A
12:00 AM64 °FClear.6 mph73%30.15 "Hg10 mi
11:30 PM
Sat, Jul 4
64 °FClear.3 mph73%30.15 "Hg10 mi
11:00 PM66 °FClear.9 mph73%30.15 "Hg10 mi
10:30 PM68 °FSunny.8 mph69%30.15 "Hg10 mi
10:00 PM70 °FSunny.13 mph69%30.15 "Hg10 mi
9:30 PM72 °FSunny.12 mph69%30.15 "Hg10 mi
9:00 PM75 °FPassing clouds.13 mph65%30.12 "HgN/A
8:30 PM77 °FPassing clouds.13 mph61%30.12 "HgN/A
8:00 PM81 °FSunny.14 mph54%30.12 "Hg10 mi
7:30 PM82 °FSunny.12 mph55%30.12 "Hg10 mi
7:00 PM84 °FPassing clouds.8 mph45%30.12 "HgN/A
6:30 PM84 °FPassing clouds.8 mph48%30.12 "HgN/A
6:00 PM84 °FPassing clouds.8 mph51%30.12 "HgN/A
5:30 PM84 °FPassing clouds.6 mph51%30.12 "HgN/A
5:00 PM84 °FPassing clouds.12 mph55%30.12 "HgN/A
Weather by CustomWeather, © 2015

See weather overviewHow to use our weather pages